Погода в Барановичи

Погода в Барановичи : погода сейчас, прогноз погоды и архив. Всё, что Вы хотите узнать о погоде в Барановичи!

Хотите узнать прогноз погоды в Барановичи? Тогда Вам сюда: Погода в Барановичи

Поиск расширенной информации на нашем сайте:

Другие новости

Новости СМИ2

Главная страница сайта

Новости сайта

03.07.2017

Напоминаем, что на нашем специализированном сайте Метеоцентр.Азия вы можете получить высокодетализированные автоматические прогнозы погоды по пунктам России, СНГ и мира в авиационном формате (включающие направление и скорость ветра, видимость, явления погоды, количество и форму облачности, нижнюю и верхнюю границу облачности).


Погода в Барановичи - сегодня

Время (UTC), дата Ветер
(°,м/с) 
Видим.   Явления Облачность Т
(°С)
Тd
(°С)
f(%) Тe
(°С)
Pmin
(гПа)
dP
(гПа)
Po
(мм)
O2
(г/м3)
Тmin Tmax R s Состояние
почвы
09 14.10.18 150 (ЮВ) 10 км    3/0 верхняя 
[Ci fib]
+14.9 +6.1 56 +16  1031.1  0.1  756  288           
12 14.10.18 160 (Ю) 10 км    3/0 верхняя 
[Ci fib]
+18.4 +3.7 38 +19  1029.7  -1.1  755  285           
15 14.10.18 150 (ЮВ) 10 км    3/0 верхняя 
[Ci fib]
+16.8 +3 40 +18  1028.3  -1.5  754  286           
18 14.10.18 130 (ЮВ) 10 км    ясно 
+11.8 +4.1 59 +12  1028.6  -0.1  754  291    +18.9       
21 14.10.18 150 (ЮВ) 10 км    ясно 
+10.1 +3.2 62 +10  1029.1  0.3  754  293           
00 15.10.18 160 (Ю) 10 км    ясно 
+7.6 +1.7 66 +8  1029  -0.3  754  295           
03 15.10.18 тихо ()   10 км    ясно 
+4.6 +1.1 78 +5  1029.1  -0.2  754  299           
06 15.10.18 140 (ЮВ) 10 км    ясно 
+6.6 +1.7 71 +6  1029.1  0.2  754  296  +3.1         
09 15.10.18 150 (ЮВ) 10 км    3/0 верхняя 
[Ci fib]
+14.8 +4.7 51 +15  1028.3  -0.1  754  287           
12 15.10.18 170 (Ю) 10 км    4/0 верхняя 
[Ci fib]
+18.8 +4 37 +19  1026.9  -1  753  283           
15 15.10.18 140 (ЮВ) 10 км    8/0 верхняя 
[Ci fib]
+16.5 +4.6 45 +17  1026.6  -0.5  753  285           
18 15.10.18 130 (ЮВ) 10 км    ясно 
+12.6 +5.3 61 +13  1026.7  -0.2  753  289    +19.2       
21 15.10.18 150 (ЮВ) 10 км    ясно 
+10.2 +5.3 72 +10  1026.6  -0.3  752  291           
00 16.10.18 150 (ЮВ) 10 км    ясно 
+8.6 +4.2 74 +9  1026.3  -0.5  752  293           
03 16.10.18 150 (ЮВ) 10 км    ясно 
+7.4 +3.6 77 +7  1026.4  752  294           
06 16.10.18 150 (ЮВ) 10 км    4/0 средняя, верхняя 
[Ac trans|Ci fib]
+7.5 +3.5 76 +7  1026.1  -0.3  752  294  +6.2         
09 16.10.18 150 (ЮВ) 10 км    6/0 верхняя 
[Ci fib]
+15 +5.3 52 +15  1025.6  0.2  752  286           
12 16.10.18 150 (ЮВ) 10 км    10/0 верхняя 
[Ci fib]
+19.9 +4.8 37 +21  1024  -1.1  751  281           
15 16.10.18 160 (Ю) 10 км    1/0 верхняя 
[Ci fib]
+17.6 +5.9 46 +18  1023.8  -0.4  751  283           
18 16.10.18 тихо ()   10 км    ясно 
+9.7 +6.3 79 +10  1025  0.5  751  291    +20.3       
21 16.10.18 тихо ()   4000 м  дымка  ясно 
+6.7 +5.9 95 +7  1025.5  0.2  751  294           
00 17.10.18 тихо ()   4000 м  дымка  ясно 
+4.7 +4.1 96 +5  1025.6  -0.1  751  297           
03 17.10.18 тихо ()   4000 м  дымка  ясно 
+4.2 +3.7 97 +4  1025.5  -0.1  751  297           
06 17.10.18 тихо ()   4000 м  дымка  ясно 
+6.8 +4.5 85 +7  1025.8  0.5  752  295  +3.1         
09 17.10.18 160 (Ю) 10 км    ясно 
+14.7 +6.5 58 +15  1025.5  0.4  752  286           
Время (UTC), дата Ветер
(°,м/с) 
Видим.   Явления Облачность Т
(°С)
Тd
(°С)
f(%) Тe
(°С)
Pmin
(гПа)
dP
(гПа)
Po
(мм)
O2
(г/м3)
Тmin Tmax R s Состояние
почвы

Для получения пояснительной информации подведите курсор к названию столбца.

ПОГОДА в Барановичи - архив

Всё, что Вы хотите узнать о погоде в Барановичи - удобно и подробно!

Выберите нужную дату (начиная с 1 января 2015* года) и нажмите кнопку "Найти".
Будут отображены архивные сводки погоды по пункту Барановичи, начиная с указанной даты.


Отображать данные в формате CSV (для использования в таблицах Excel)


Внимание! Наш архив погоды предназначен исключительно для личного некоммерческого использования в познавательных целях. Если Вам необходимы официальные справки о состоянии погоды (для производственных, юридических, коммерческих и т.п. целей), обращайтесь в органы Росгидромета.

*Примечание: данная дата относится к архиву по метеостанциям СССР (Россия, СНГ, Балтия).
Архив по метеостанциям Зарубежной Европы и Азии (кроме Китая) хранится 10 дней, по другим регионам земного шара (Китай, Африка, Америка, Австралия, Океания) - 1 день.

Барановичи - район местоположения метеостанции


Название, широта, долгота, высота метеостанции:
Барановичи 53.1°ш. 26°д. 193 м над ур. моря [Беларусь]

Дополнительная информация

В oтличие oт бoльшинства пoгoдных сайтoв мы публикуем пoдрoбную метеoинфoрмацию в детальнoм прoфессиoнальнoм фoрмате.

Характеристики температуры и влажнoсти вoздуха измеряются на высoте 2 м в тени вдали oт зданий и деревьев.
Скoрoсть ветра измеряется на высoте 10 м (на урoвне рoста челoвека скoрoсть ветра ниже в 1.5-2 раза). Если метеoстанция нахoдится в гoрoде или в лесу, тo скoрoсть ветра занижена на 2-4 м/с пo сравнению с oткрытым местoм. Скoрoсть ветра над акватoриями крупных рек и oзёр, а также на вершинах хoлмoв на 2-5 м/с выше, чем в oбычных услoвиях.
Атмoсфернoе давление в разных тoчках местнoсти мoжет значительнo oтличаться oт давления на метеoстанции, в зависимoсти oт услoвий рельефа (при пoдъёме на 10 м давление пoнижается примернo на 1 мм рт.ст.).